Location: Alsip
(41.6689°N, 87.7387°W)
Time: 13:06:57
(UTC+00:00)

MOZ.5/SAFIR/RUBIN 5/SL-8 - Pass Details

Date: 14 July 2020
Orbit: 678 x 705 km, 98.1° (Epoch: 04 August)

Event Time Altitude Azimuth Distance (km) Brightness Sun altitude
Exits shadow 07:00:30 46° 113° (ESE) 939 4.3 -25.0°
Maximum altitude 07:01:25 54° 73° (ENE) 852 4.3 -25.0°
Drops below altitude 10° 07:06:05 10° 356° (N) 2,182 7.3 -24.7°
Sets 07:08:23 0° 352° (N) 3,106 8.2 -24.6°
